GFSCGP_sfc_temp_117.txt.gz
Temp
46 44 40 45 47 46 46 43 43 44 47 45 45 45 50 51 51 52 52 54 55 55 61 59 59 58 58 59 62 64 64 66 66 65 63 63 62 62 62 62 62 61 61 59
43 38 46 49 48 46 43 42 41 45 46 46 43 45 49 50 51 54 57 55 55 56 58 57 57 57 54 59 60 63 64 65 66 67 67 67 65 64 64 62 62 62 61 59
39 43 47 47 44 44 41 41 41 44 43 42 41 41 45 49 48 51 53 54 54 55 55 57 55 55 54 53 55 60 63 65 66 67 68 59 59 57 59 61 60 61 61 60
41 43 43 41 41 44 37 46 45 43 41 36 39 34 40 46 47 49 53 53 53 53 52 51 51 52 53 53 51 56 60 63 64 66 67 63 63 61 62 62 62 60 61 60
40 41 41 40 43 46 43 44 44 41 37 34 34 35 39 40 46 53 53 51 51 51 49 49 49 49 51 51 50 50 55 59 62 64 66 66 64 65 63 61 60 60 60 60
40 41 43 44 42 45 43 42 39 36 36 30 35 38 35 42 47 47 49 49 49 48 48 48 47 47 48 49 50 50 52 56 58 62 64 66 64 63 56 56 58 57 54 54
36 37 40 44 40 42 40 39 30 29 27 29 32 33 39 46 48 48 50 49 48 47 47 47 46 46 47 47 50 51 53 54 57 60 63 65 64 60 58 55 56 53 51 50
33 30 39 43 43 39 38 40 31 23 24 30 33 31 40 45 47 48 47 47 47 46 47 46 45 45 46 46 48 52 54 54 56 56 56 57 57 56 56 55 54 53 52 51
34 36 39 42 44 47 39 36 40 30 16 24 31 35 43 45 45 45 46 45 47 46 46 46 45 44 45 45 45 48 51 52 52 53 52 53 53 53 52 51 51 51 49 47
41 34 37 40 45 43 43 45 35 30 19 19 29 31 39 41 45 45 46 44 44 44 44 44 44 44 44 44 45 46 47 48 49 50 51 50 50 50 50 49 48 47 46 45
43 40 33 39 38 37 38 37 37 37 33 25 21 32 39 46 45 44 44 45 44 44 44 44 44 43 43 44 44 44 45 46 46 47 47 47 46 46 46 46 46 45 44 43
44 39 30 34 36 38 39 41 40 35 28 28 28 36 41 42 44 44 44 45 44 44 43 42 42 43 43 43 44 44 44 45 45 45 45 45 45 44 44 44 44 43 43 41
44 32 22 28 32 33 34 35 38 37 34 28 27 38 38 39 41 42 44 44 44 42 42 41 41 41 42 42 42 43 43 43 44 44 44 44 44 44 44 44 43 41 41 40
49 34 36 32 33 36 33 35 40 42 30 36 34 40 36 38 40 41 43 43 43 43 43 41 41 41 41 41 42 42 42 43 44 44 44 43 43 43 43 42 41 40 39 39
43 33 34 34 34 35 33 35 39 39 43 35 43 39 40 41 41 43 43 43 42 42 41 41 41 40 40 40 40 40 41 41 42 42 42 41 41 41 40 39 39 38 38 38
40 32 32 29 35 36 33 34 37 41 42 42 42 39 45 46 41 40 43 42 41 40 40 40 40 39 39 39 39 40 40 39 39 39 38 38 38 38 37 38 37 36 36 35
36 33 32 31 33 32 30 36 34 34 36 40 36 44 43 40 41 41 41 40 40 40 40 39 39 39 39 38 39 39 39 39 38 37 36 36 36 36 35 34 33 31 31 31
33 32 32 29 32 25 35 34 44 40 42 41 40 38 41 43 41 41 41 39 38 38 38 38 39 39 38 38 37 38 37 37 37 36 35 34 33 32 31 30 29 28 28 28
38 34 31 28 28 28 33 33 34 35 37 45 41 38 38 37 37 35 39 39 39 39 38 38 38 37 36 36 36 37 36 35 34 33 33 32 29 27 26 26 26 26 26 26
35 35 33 26 24 19 28 30 35 40 32 36 43 42 35 37 35 36 37 37 37 37 36 36 36 36 35 34 34 35 33 33 32 32 31 28 26 22 23 24 24 25 24 26
31 32 31 28 21 24 31 34 36 28 31 33 37 39 35 37 38 36 36 36 35 35 35 34 34 33 32 32 33 32 32 30 30 29 26 25 25 23 23 22 22 21 21 23
31 30 30 28 25 25 33 33 32 36 33 34 33 35 34 33 33 34 34 33 34 34 34 34 32 31 29 29 29 30 28 28 27 25 24 22 19 22 22 16 20 18 18 19
26 31 29 32 31 33 32 32 34 35 35 34 34 33 34 33 32 33 31 31 33 33 32 31 30 27 25 26 25 24 24 24 22 18 17 18 19 22 20 18 21 22 19 20
23 27 26 29 31 31 33 33 33 35 35 35 34 34 35 33 32 31 31 32 31 30 28 26 26 24 21 20 21 19 19 17 12 12 16 18 18 19 19 21 21 20 21 21
27 28 22 24 27 30 33 33 36 35 33 32 32 32 33 34 30 31 30 29 28 26 23 21 20 19 17 16 16 12 11 9 12 14 17 18 17 15 19 20 21 21 22 22
27 27 27 26 33 36 37 37 35 33 32 32 32 30 31 31 30 27 26 25 22 19 17 16 14 13 12 11 10 7 3 4 6 12 14 14 16 18 19 19 23 29 32 33

GFSCGP_sfc_temp_123.txt.gz
Temp
65 59 55 61 64 67 66 61 60 63 60 60 61 62 68 74 72 70 73 75 77 78 83 83 82 81 80 80 80 80 79 78 77 69 67 66 64 65 66 71 74 74 73 70
57 54 64 67 66 61 61 59 59 58 59 57 61 58 65 69 70 71 74 76 78 79 82 81 80 78 78 78 78 79 79 79 77 72 69 69 69 66 68 69 68 73 73 72
57 60 67 61 59 57 59 58 59 58 57 58 57 57 61 68 70 73 74 76 78 79 78 80 76 76 76 74 75 76 77 79 79 73 70 67 66 64 63 65 65 67 70 70
60 60 59 57 57 60 53 62 62 56 55 52 58 51 63 66 66 66 68 70 74 76 74 74 73 73 74 73 73 73 75 76 77 77 69 66 64 63 64 64 65 64 66 66
56 54 54 54 58 62 58 61 59 58 55 54 55 51 60 62 62 66 69 71 73 73 71 70 67 65 66 66 65 67 70 72 73 73 73 67 65 67 70 65 62 63 64 65
59 57 61 61 58 61 59 57 56 56 56 43 54 52 56 63 63 70 71 69 66 65 65 63 62 61 63 63 62 63 65 68 69 72 73 70 66 66 64 63 62 62 61 61
51 52 56 58 53 57 59 54 44 41 41 41 49 49 57 67 68 66 66 66 66 65 64 63 62 62 61 60 60 62 63 64 69 69 71 71 69 68 65 65 64 61 57 56
46 42 51 56 58 52 53 56 46 33 37 44 44 42 55 67 69 64 66 64 64 64 63 62 60 60 60 59 58 62 64 64 66 67 68 71 67 65 64 62 62 59 59 58
49 48 57 56 57 60 52 49 61 43 32 40 48 53 61 62 62 63 63 61 61 63 63 62 61 60 60 59 58 58 60 61 64 66 67 67 63 59 58 58 58 57 56 52
56 45 51 51 55 57 56 61 45 48 33 34 47 49 53 55 61 64 62 61 63 61 60 60 59 59 58 59 59 59 58 57 58 59 60 58 57 58 57 55 53 53 51 50
58 53 42 48 48 51 50 51 53 54 50 39 39 49 65 65 65 65 64 62 63 60 60 59 58 57 57 57 58 58 57 55 53 52 53 52 51 51 52 52 51 51 50 52
58 52 39 45 54 55 57 54 54 45 41 47 44 48 60 61 64 65 65 60 60 60 59 59 57 56 56 56 57 57 57 56 55 53 52 50 50 51 51 52 54 53 55 54
55 42 33 36 46 51 46 52 56 55 48 38 37 46 59 57 58 58 62 59 56 57 56 55 55 55 55 55 55 55 55 55 55 57 56 55 55 56 56 56 55 53 52 52
54 40 41 38 44 51 42 47 52 51 39 42 44 50 57 55 58 59 58 57 57 56 55 56 55 54 55 54 55 56 55 56 56 56 56 56 55 55 55 53 52 50 50 49
53 36 43 48 49 47 45 43 47 43 47 42 49 51 57 63 61 63 62 59 57 56 54 55 54 54 53 52 53 54 54 53 55 54 53 51 51 51 50 47 47 45 44 44
52 34 43 36 47 46 35 47 48 48 49 50 51 51 64 66 68 63 61 59 57 55 56 56 54 52 52 52 53 52 52 52 53 51 47 46 45 42 42 41 40 40 40 41
39 34 34 34 41 36 32 40 47 47 50 52 45 54 61 60 57 59 59 58 56 57 56 54 52 51 51 52 52 52 51 50 47 43 41 41 41 40 39 39 39 38 38 37
34 34 35 32 33 25 42 54 54 50 52 54 55 57 58 58 58 58 60 59 56 57 55 53 53 52 50 49 50 48 47 43 40 39 38 38 38 37 37 36 35 35 36 35
49 39 33 31 31 38 44 42 46 46 46 54 54 57 57 58 51 53 55 57 58 55 52 52 51 49 48 48 46 41 40 39 38 37 36 35 33 32 33 32 33 33 33 33
39 42 36 32 30 28 40 47 50 50 36 49 54 54 55 50 44 52 53 49 51 51 50 47 45 45 44 42 41 39 38 37 36 35 34 33 32 31 31 32 31 32 33 32
32 33 31 32 31 35 43 43 50 34 39 44 48 50 48 46 51 48 48 47 46 45 43 44 43 42 40 39 39 37 36 34 34 34 32 30 31 30 31 31 32 31 31 31
33 31 31 32 31 30 43 42 42 45 42 44 45 48 48 49 45 45 45 44 43 41 42 40 37 35 35 37 37 35 32 32 32 32 30 29 29 31 31 30 31 30 31 31
32 40 34 37 39 41 45 43 45 46 46 44 45 44 46 42 43 45 43 42 42 41 37 37 35 32 32 32 34 31 29 29 28 27 26 27 27 29 29 30 30 32 32 32
36 38 38 38 40 42 43 43 43 44 44 44 44 44 44 43 42 39 39 38 36 36 34 33 31 29 27 27 27 26 25 24 24 26 26 27 27 27 29 31 31 31 32 32
38 38 34 35 37 39 42 44 45 41 40 39 39 39 41 41 37 37 36 35 35 33 32 32 30 28 25 25 22 20 19 19 24 24 24 26 27 26 27 29 29 29 30 31
35 37 37 39 43 44 43 45 44 41 40 41 39 37 37 39 37 37 35 34 32 29 28 27 26 25 23 22 18 14 13 16 19 25 25 23 24 26 26 27 28 33 32 32

GFSCGP_sfc_temp_129.txt.gz
Temp
53 47 42 49 52 53 52 49 49 48 52 50 49 48 53 55 53 54 55 57 58 60 64 64 66 65 65 65 67 67 67 67 67 67 65 65 64 65 64 67 66 63 62 61
46 42 51 55 54 52 49 47 45 49 52 50 46 48 52 55 55 56 57 57 59 60 63 64 63 62 63 65 67 67 68 66 66 66 65 66 67 67 67 64 66 66 62 61
43 49 56 54 51 49 49 47 45 48 48 48 45 44 49 56 56 59 59 61 61 62 62 64 62 61 61 62 62 65 68 67 67 66 65 61 62 62 63 63 64 63 65 63
47 53 53 48 49 51 43 53 51 47 42 38 44 33 44 51 54 53 59 59 59 59 58 60 60 58 57 57 58 62 63 64 67 66 64 63 62 61 62 64 64 64 63 63
45 48 47 47 52 54 48 52 50 47 43 38 38 36 42 46 50 54 54 55 56 56 58 58 56 56 53 54 53 54 58 60 62 65 65 63 62 63 60 60 62 63 63 63
47 50 51 51 51 53 52 48 46 44 41 31 39 39 38 46 52 52 53 54 54 51 49 50 50 52 52 51 52 52 53 55 57 58 61 62 61 63 62 61 61 61 62 62
43 45 47 51 47 48 48 42 29 30 28 29 37 35 44 49 55 54 55 50 49 49 48 49 49 49 48 48 51 52 52 52 54 55 56 60 61 62 62 61 61 60 59 58
38 35 45 49 47 44 45 44 33 25 25 30 34 31 43 52 54 53 53 51 50 49 49 48 48 48 49 48 49 51 52 52 52 53 54 55 58 58 59 61 60 60 59 59
39 38 46 49 51 53 44 39 46 33 21 26 33 38 48 50 51 48 48 49 48 48 47 48 47 47 48 48 49 50 50 50 51 52 53 53 56 56 57 57 59 58 57 55
47 37 45 46 50 49 46 52 37 32 22 21 29 31 39 44 49 49 48 48 47 47 47 47 47 47 47 47 49 49 50 49 49 50 50 51 52 54 55 56 55 54 52 51
49 41 36 44 42 42 43 42 44 42 35 28 23 33 43 50 49 50 49 48 48 48 47 46 46 46 46 47 47 47 50 50 48 48 48 48 48 50 52 52 52 51 50 50
48 40 31 38 45 49 50 45 48 38 31 32 30 38 47 48 48 50 50 50 47 47 46 45 45 44 44 45 46 46 47 49 50 49 48 48 48 49 50 50 50 50 50 49
48 35 25 31 39 41 40 44 47 44 36 30 26 40 46 45 47 46 48 47 46 44 43 44 43 43 43 44 45 45 46 47 50 51 50 50 50 50 50 49 48 48 47 45
53 34 35 34 36 39 36 40 45 44 32 36 32 45 42 45 48 46 45 45 44 44 45 43 42 43 43 44 44 44 44 46 47 50 50 49 49 48 47 46 44 43 42 41
48 34 36 39 38 39 36 36 40 40 44 37 45 43 50 46 47 48 48 45 45 45 44 43 43 42 42 42 43 43 44 44 45 44 43 42 42 42 41 39 38 37 37 36
44 31 36 28 38 37 33 38 42 44 45 44 46 40 56 51 49 46 49 47 46 46 45 45 44 43 43 43 42 43 43 43 43 41 39 39 38 36 35 35 35 35 35 35
39 30 24 24 33 31 26 38 39 41 47 46 40 49 49 48 48 48 49 48 49 48 48 46 46 45 43 43 44 42 42 40 38 36 35 35 35 35 35 35 35 34 34 33
32 31 26 19 24 21 40 43 49 44 45 47 48 50 47 52 52 50 49 49 48 48 47 47 45 45 44 42 42 40 38 36 34 34 34 34 34 34 34 33 33 32 31 31
42 34 27 25 11 30 41 38 39 38 42 48 47 51 51 48 43 47 48 50 53 52 49 47 47 45 42 42 40 36 34 33 33 33 33 34 33 32 31 31 30 28 29 29
36 40 36 16 20 18 30 39 45 43 36 44 49 50 51 44 42 51 49 46 48 47 44 42 41 40 39 37 36 35 34 34 33 32 32 31 30 31 30 29 30 29 29 29
28 28 32 24 24 25 36 36 44 31 33 37 40 44 43 42 50 45 44 40 39 39 38 39 39 39 38 35 35 34 32 32 31 31 29 28 29 29 31 30 28 29 28 26
33 32 30 29 28 26 36 37 40 40 35 39 37 38 39 38 38 37 37 37 36 35 34 34 33 32 32 33 34 32 30 30 29 28 27 27 29 30 29 30 28 25 23 22
32 35 31 35 34 36 33 34 37 39 38 37 38 37 38 36 35 36 34 34 33 32 32 31 32 30 30 31 33 30 28 28 26 25 25 28 28 28 27 24 22 24 21 20
33 32 31 34 35 34 36 35 36 37 37 35 35 35 37 37 35 34 33 32 31 30 30 28 29 28 26 24 27 26 26 25 24 26 26 25 23 22 24 26 24 20 16 15
32 34 28 28 31 34 35 38 39 36 36 36 34 34 34 35 33 33 32 31 30 29 27 27 27 26 22 21 20 19 19 19 24 25 21 19 23 19 18 19 18 18 17 19
33 33 31 29 35 36 34 38 37 37 37 37 36 33 33 34 34 32 30 30 28 26 24 24 22 21 18 17 15 11 10 20 23 21 20 20 22 19 18 16 16 29 30 33

GFSCGP_sfc_temp_132.txt.gz
Temp
48 45 40 46 50 53 51 49 47 47 52 49 48 50 54 53 51 53 52 52 54 57 64 62 62 65 63 65 65 66 66 67 66 67 65 65 65 65 64 67 66 64 62 59
43 39 49 53 52 51 49 46 45 46 49 47 44 48 52 50 53 53 54 54 55 56 58 60 60 59 61 64 65 65 66 66 65 67 67 69 69 68 66 64 65 65 64 62
41 48 53 52 48 48 47 46 45 47 47 45 44 44 47 52 51 54 55 59 60 60 59 61 60 58 58 61 64 64 65 66 66 66 63 59 60 61 62 61 62 63 64 63
45 51 50 46 46 48 42 52 50 46 45 40 44 33 41 47 51 51 56 58 60 58 57 59 60 58 56 59 58 63 65 65 65 65 63 62 62 61 63 62 63 62 63 63
43 46 44 44 48 51 46 50 48 47 42 39 37 35 41 45 49 54 56 57 59 60 56 58 58 56 52 53 53 55 58 60 63 63 63 62 62 62 59 59 59 60 62 62
49 49 50 50 50 52 50 46 43 40 39 32 38 38 39 45 53 55 54 55 55 53 52 53 49 50 50 49 50 51 53 55 56 60 63 62 61 59 59 61 61 61 61 61
42 44 46 49 46 45 45 41 29 30 29 29 37 34 45 48 51 52 54 53 47 46 46 47 48 48 48 49 50 51 51 52 53 54 56 60 61 60 61 62 62 60 60 59
38 34 44 48 47 43 44 44 33 25 24 30 34 31 42 51 53 53 53 49 47 46 46 47 48 47 48 48 48 49 50 50 51 50 52 54 58 60 60 60 59 60 60 60
36 37 45 47 49 53 43 39 45 32 19 25 32 37 47 49 49 45 46 46 47 47 46 46 46 46 47 47 48 49 49 49 50 51 50 51 53 55 58 59 57 59 59 56
44 37 42 45 50 48 46 50 38 31 21 21 30 32 39 45 49 48 47 47 46 45 45 45 45 45 45 46 48 48 48 48 48 48 49 50 51 53 54 54 54 55 53 53
45 41 36 43 43 41 42 41 41 41 34 27 23 32 43 49 52 49 49 47 47 47 46 45 44 44 45 45 46 47 47 48 47 47 47 48 48 50 51 51 52 52 51 51
45 38 30 38 43 46 47 45 46 35 30 30 30 35 48 47 49 50 51 49 47 47 45 44 43 43 43 44 45 46 46 47 47 47 47 47 47 48 48 50 50 50 50 49
44 32 23 32 40 40 40 42 46 41 35 28 27 38 43 45 43 46 49 47 47 45 43 43 42 42 42 42 43 44 45 46 48 47 48 49 49 48 49 49 48 47 46 45
50 35 34 31 36 39 36 40 44 43 32 35 37 44 39 44 45 46 44 44 43 44 44 42 41 41 42 42 42 43 44 45 51 50 49 49 48 48 47 46 45 44 43 42
46 26 33 36 38 40 37 38 42 38 43 36 45 41 48 45 47 47 46 44 44 44 43 42 41 41 41 41 42 42 43 43 47 48 47 45 44 44 43 41 40 38 37 36
44 33 35 29 36 37 32 40 42 43 44 44 44 41 50 50 47 44 48 46 45 45 44 43 43 42 41 41 41 42 42 42 42 42 41 39 40 37 36 35 35 35 35 35
39 31 31 26 33 33 30 37 40 44 47 47 40 49 49 43 47 47 48 47 47 47 47 44 45 45 43 43 43 42 41 40 39 37 35 35 34 34 34 34 34 34 34 34
38 38 30 25 28 24 39 47 46 43 46 48 49 51 46 48 48 49 50 49 47 48 47 45 45 44 42 41 41 40 38 37 35 34 34 34 34 33 33 33 32 32 30 31
40 36 25 25 15 30 40 36 38 38 42 46 46 51 51 46 42 49 48 48 52 51 52 49 47 44 40 41 39 37 35 34 34 33 33 33 33 31 32 32 31 30 30 30
36 41 37 13 21 20 30 38 44 43 37 46 48 50 50 42 40 53 49 47 46 46 44 43 41 40 40 37 36 36 34 34 33 33 33 31 30 31 31 30 31 29 29 30
27 26 33 18 26 26 35 37 45 31 35 39 44 48 45 41 50 46 45 41 41 40 40 38 38 40 39 36 36 34 33 33 32 31 29 28 28 30 30 29 28 30 30 28
29 30 31 25 26 27 36 35 40 41 36 40 40 41 41 40 38 38 38 36 37 36 34 34 33 33 32 34 36 33 33 31 30 29 27 26 26 27 28 29 29 28 28 28
30 36 29 36 34 36 34 34 38 38 39 37 37 36 37 37 36 36 35 34 33 32 32 32 32 30 30 31 32 32 28 29 27 26 24 24 28 29 29 29 27 27 25 26
31 32 31 34 34 35 37 35 35 36 36 36 35 35 36 36 35 33 33 32 31 31 30 29 29 28 26 25 28 29 28 26 26 25 24 24 25 27 27 27 26 22 21 19
31 34 28 28 31 33 33 35 36 34 34 36 36 35 34 34 33 33 32 31 30 29 26 26 27 27 24 23 22 24 24 26 25 24 25 26 26 27 24 24 20 23 16 19
31 31 34 33 33 35 34 36 35 35 35 36 36 34 33 33 33 31 31 30 28 24 22 23 21 23 20 20 19 18 19 25 26 26 25 24 24 23 22 23 22 31 30 33